Location: B?jaj?g
(11.7167°N, 92.6667°E)
Time: 02:56:24
(UTC+00:00)

Exosat Rocket - Pass Details

Date: 18 September 2020
Orbit: 761 x 2514 km, 72.3° (Epoch: 18 October)

Event Time Altitude Azimuth Distance (km) Brightness Sun altitude
Rises 12:47:20 0° 185° (S) 4,797 7.6 -15.3°
Reaches altitude 10° 12:50:51 10° 181° (S) 3,543 6.9 -16.2°
Maximum altitude 12:58:45 54° 106° (ESE) 1,304 4.3 -18.1°
Drops below altitude 10° 13:04:26 10° 29° (NNE) 2,576 6.0 -19.5°
Sets 13:06:37 0° 25° (NNE) 3,401 6.7 -20.0°
